KN4JGH Weather Reports


Display with metric or nautical units.
time (UTC)temp
F
wind
direction
speed
MPH
gust
MPH
rain 1hr
in
rain 24hr
in
rain mn
in
humidity
%
barometer
mb
20260510225324 81 333 2.0 4.0 0.00 0.00 0.00 45 1015.4
20260510224322 80 34 1.0 3.0 0.00 0.00 0.00 48 1015.4
20260510223319 82 83 0.0 4.0 0.00 0.00 0.00 41 1015.5
20260510222313 83 11 3.0 5.0 0.00 0.00 0.00 41 1015.3
20260510221312 84 9 2.0 8.0 0.00 0.00 0.00 44 1015.4
20260510220328 84 360 3.0 8.0 0.00 0.00 0.00 43 1015.4
20260510215322 85 96 3.0 6.0 0.00 0.00 0.00 45 1015.3
20260510214316 85 316 2.0 6.0 0.00 0.00 0.00 44 1015.4
20260510213316 84 348 3.0 9.0 0.00 0.00 0.00 45 1015.3
20260510212332 84 42 7.0 10.0 0.00 0.00 0.00 44 1015.6
20260510211325 85 29 2.0 8.0 0.00 0.00 0.00 47 1015.6
20260510210323 84 40 5.0 9.0 0.00 0.00 0.00 42 1015.7
20260510205318 84 347 3.0 8.0 0.00 0.00 0.00 45 1015.7
20260510204312 84 9 3.0 8.0 0.00 0.00 0.00 46 1015.6
20260510203348 84 63 2.0 6.0 0.00 0.00 0.00 43 1015.9
20260510202327 84 339 3.0 9.0 0.00 0.00 0.00 44 1015.8
20260510201322 85 323 5.0 9.0 0.00 0.00 0.00 44 1016.0
20260510200338 84 48 2.0 6.0 0.00 0.00 0.00 44 1016.1
20260510195317 85 24 3.0 8.0 0.00 0.00 0.00 41 1016.0
20260510194331 85 308 3.0 7.0 0.00 0.00 0.00 39 1016.0
20260510193328 85 34 4.0 9.0 0.00 0.00 0.00 44 1016.0
20260510192324 85 48 2.0 7.0 0.00 0.00 0.00 48 1016.0
20260510191322 84 225 3.0 10.0 0.00 0.00 0.00 38 1016.0
20260510190318 85 223 1.0 9.0 0.00 0.00 0.00 41 1016.0
20260510185314 84 217 4.0 10.0 0.00 0.00 0.00 38 1016.1
20260510184313 84 61 3.0 7.0 0.00 0.00 0.00 45 1016.1
20260510183329 83 142 2.0 8.0 0.00 0.00 0.00 41 1016.2
20260510182324 84 100 4.0 9.0 0.00 0.00 0.00 42 1016.3
20260510181319 84 90 3.0 9.0 0.00 0.00 0.00 45 1016.4
20260510180319 83 244 3.0 8.0 0.00 0.00 0.00 43 1016.6
20260510175314 83 258 4.0 9.0 0.00 0.00 0.00 41 1016.7
20260510174328 82 332 4.0 8.0 0.00 0.00 0.00 40 1016.8
20260510173327 82 257 5.0 10.0 0.00 0.00 0.00 38 1016.9
20260510172341 82 245 4.0 10.0 0.00 0.00 0.00 40 1016.8
20260510171335 82 259 5.0 9.0 0.00 0.00 0.00 41 1016.8
20260510170329 81 225 4.0 7.0 0.00 0.00 0.00 40 1016.8
20260510165328 81 7 3.0 7.0 0.00 0.00 0.00 42 1016.9
20260510164320 80 242 3.0 8.0 0.00 0.00 0.00 48 1016.9
20260510163316 81 252 2.0 8.0 0.00 0.00 0.00 49 1016.9
20260510162331 79 305 4.0 7.0 0.00 0.00 0.00 44 1016.8
20260510161330 80 233 4.0 8.0 0.00 0.00 0.00 49 1016.7
20260510160326 79 265 3.0 6.0 0.00 0.00 0.00 53 1016.8
20260510155322 80 107 2.0 9.0 0.00 0.00 0.00 58 1016.8
20260510154320 78 198 2.0 6.0 0.00 0.00 0.00 60 1016.7
20260510153315 77 229 3.0 8.0 0.00 0.00 0.00 59 1016.7
20260510152351 76 7 3.0 9.0 0.00 0.00 0.00 62 1016.9
20260510151324 77 284 5.0 8.0 0.00 0.00 0.00 65 1016.9
20260510150324 76 39 2.0 6.0 0.00 0.00 0.00 69 1017.0
20260510145340 74 274 2.0 5.0 0.00 0.00 0.00 73 1016.9
20260510144313 73 281 2.0 8.0 0.00 0.00 0.00 75 1016.9
20260510143329 72 234 3.0 8.0 0.00 0.00 0.00 77 1016.9
20260510142349 72 274 3.0 6.0 0.00 0.00 0.00 80 1017.0
20260510141323 71 150 2.0 8.0 0.00 0.00 0.00 82 1016.8
20260510140319 69 194 2.0 4.0 0.00 0.00 0.00 84 1016.8
20260510135319 69 204 0.0 4.0 0.00 0.00 0.00 86 1016.9
20260510134313 68 271 1.0 5.0 0.00 0.00 0.00 88 1016.8
20260510133330 66 218 2.0 4.0 0.00 0.00 0.00 90 1016.8
20260510132325 65 211 2.0 4.0 0.00 0.00 0.00 91 1016.8
20260510131343 63 192 1.0 4.0 0.00 0.00 0.00 94 1016.8
20260510130318 61 223 3.0 4.0 0.00 0.00 0.00 95 1016.8
20260510125351 60 123 0.0 0.0 0.00 0.00 0.00 96 1016.7
20260510124324 59 123 0.0 0.0 0.00 0.00 0.00 96 1016.6
20260510123344 58 13 0.0 0.0 0.00 0.00 0.00 96 1016.6
20260510122320 57 13 0.0 0.0 0.00 0.00 0.00 96 1016.3
20260510121314 56 13 0.0 0.0 0.00 0.00 0.00 95 1016.2
20260510120313 55 13 0.0 0.0 0.00 0.00 0.00 95 1016.2
20260510115330 54 13 0.0 0.0 0.00 0.00 0.00 95 1015.9
20260510114325 53 13 0.0 0.0 0.00 0.00 0.00 95 1015.8
20260510113320 52 13 0.0 0.0 0.00 0.00 0.00 94 1015.6
20260510112318 51 13 0.0 0.0 0.00 0.00 0.00 94 1015.4
20260510111312 51 13 0.0 0.0 0.00 0.00 0.00 94 1015.4
20260510110328 51 13 0.0 0.0 0.00 0.00 0.00 94 1015.2
20260510105328 51 13 0.0 0.0 0.00 0.00 0.00 94 1015.1
20260510104323 51 13 0.0 0.0 0.00 0.00 0.00 94 1015.0
20260510103320 51 13 0.0 0.0 0.00 0.00 0.00 94 1014.9
20260510102335 51 13 0.0 0.0 0.00 0.00 0.00 94 1014.9
20260510101331 51 13 0.0 0.0 0.00 0.00 0.00 93 1015.0
20260510100327 51 13 0.0 0.0 0.00 0.00 0.00 93 1014.9
20260510095343 51 13 0.0 0.0 0.00 0.00 0.00 93 1014.8
20260510094317 51 13 0.0 0.0 0.00 0.00 0.00 93 1014.6
20260510093317 51 13 0.0 0.0 0.00 0.00 0.00 93 1014.5
20260510092313 51 13 0.0 0.0 0.00 0.00 0.00 92 1014.4
20260510091327 52 13 0.0 0.0 0.00 0.00 0.00 92 1014.3
20260510090328 52 13 0.0 0.0 0.00 0.00 0.00 93 1014.3
20260510085323 52 13 0.0 0.0 0.00 0.00 0.00 93 1014.3
20260510084318 52 13 0.0 0.0 0.00 0.00 0.00 92 1014.2
20260510083334 52 13 0.0 0.0 0.00 0.00 0.00 93 1014.3
20260510082333 52 13 0.0 0.0 0.00 0.00 0.00 92 1014.3
20260510081328 52 13 0.0 0.0 0.00 0.00 0.00 92 1014.4
20260510080344 52 13 0.0 0.0 0.00 0.00 0.00 92 1014.1
20260510075318 52 13 0.0 0.0 0.00 0.00 0.00 92 1014.0
20260510074316 52 13 0.0 0.0 0.00 0.00 0.00 91 1013.9
20260510073313 53 13 0.0 0.0 0.00 0.00 0.00 91 1013.8
20260510072329 53 13 0.0 0.0 0.00 0.00 0.00 91 1013.8
20260510071347 53 13 0.0 0.0 0.00 0.00 0.00 91 1013.7
20260510070343 53 13 0.0 0.0 0.00 0.00 0.00 92 1013.7
20260510065317 52 13 0.0 0.0 0.00 0.00 0.00 91 1013.7
20260510064312 52 13 0.0 0.0 0.00 0.00 0.00 91 1013.8
20260510063312 53 13 0.0 0.0 0.00 0.00 0.00 91 1013.6
20260510062346 53 13 0.0 0.0 0.00 0.00 0.00 90 1013.7
20260510061318 54 13 0.0 0.0 0.00 0.00 0.00 90 1013.8
20260510060313 53 13 0.0 0.0 0.00 0.00 0.00 90 1013.7
20260510055313 53 13 0.0 0.0 0.00 0.00 0.00 90 1013.8
20260510054327 53 13 0.0 0.0 0.00 0.00 0.00 89 1013.7
20260510053321 54 13 0.0 0.0 0.00 0.00 0.00 89 1013.8
20260510052340 54 13 0.0 0.0 0.00 0.00 0.00 87 1013.7
20260510051314 55 13 0.0 0.0 0.00 0.00 0.00 89 1013.7
20260510050330 55 13 0.0 0.0 0.00 0.00 0.00 88 1013.6
20260510045324 54 13 0.0 0.0 0.00 0.00 0.00 89 1013.5
20260510044322 54 13 0.0 0.0 0.00 0.00 0.00 88 1013.5
20260510043340 55 13 0.0 0.0 0.00 0.00 0.00 87 1013.6
20260510042314 56 13 0.0 0.0 0.00 0.00 0.00 87 1013.5
20260510041348 56 13 0.0 0.0 0.00 0.00 0.00 87 1013.5
20260510040327 56 13 0.0 0.0 0.00 0.00 0.00 85 1013.6
20260510035323 57 13 0.0 0.0 0.00 0.00 0.00 84 1013.5
20260510034318 57 13 0.0 0.0 0.00 0.00 0.00 86 1013.5
20260510033318 58 13 0.0 0.0 0.00 0.00 0.00 84 1013.4
20260510032313 58 13 0.0 0.0 0.00 0.00 0.00 85 1013.5
20260510031327 58 13 0.0 0.0 0.00 0.00 0.00 84 1013.3
20260510030324 59 13 0.0 0.0 0.00 0.00 0.00 82 1013.3
20260510025324 60 13 0.0 0.0 0.00 0.00 0.00 80 1013.3
20260510024318 60 13 0.0 0.0 0.00 0.00 0.00 81 1013.2
20260510023314 61 13 0.0 0.0 0.00 0.00 0.00 79 1012.9
20260510022315 62 13 0.0 0.0 0.00 0.00 0.00 80 1012.8
20260510021329 61 13 0.0 0.0 0.00 0.00 0.00 80 1012.7
20260510020345 61 13 0.0 0.0 0.00 0.00 0.00 80 1012.4
20260510015321 62 13 0.0 0.0 0.00 0.00 0.00 79 1012.3
20260510014320 63 13 0.0 0.0 0.00 0.00 0.00 78 1012.3
20260510013315 63 13 0.0 0.0 0.00 0.00 0.00 78 1012.2
20260510012351 64 29 0.0 0.0 0.00 0.00 0.00 77 1012.0
20260510011329 64 29 0.0 0.0 0.00 0.00 0.00 76 1011.8
20260510010325 65 29 0.0 0.0 0.00 0.00 0.00 74 1011.6
20260510005321 66 29 0.0 0.0 0.00 0.00 0.00 73 1011.6
20260510004316 68 29 0.0 0.0 0.00 0.00 0.00 70 1011.3
20260510003336 69 29 0.0 0.0 0.00 0.00 0.00 68 1011.3
20260510002331 70 29 0.0 2.0 0.00 0.00 0.00 68 1011.2
20260510001325 72 13 1.0 3.0 0.00 0.00 0.00 63 1011.2
20260510000326 73 330 1.0 2.0 0.00 0.00 0.00 60 1011.3
20260509235342 75 340 0.0 4.0 0.00 0.00 0.00 56 1011.2
20260509234335 76 34 1.0 5.0 0.00 0.00 0.00 56 1011.1
20260509233330 77 20 2.0 4.0 0.00 0.00 0.00 52 1011.0
20260509232330 78 229 2.0 6.0 0.00 0.00 0.00 48 1010.9
20260509231325 78 11 3.0 5.0 0.00 0.00 0.00 47 1011.0
20260509230321 79 313 1.0 6.0 0.00 0.00 0.00 47 1010.8